SCP
0 0 0 0 0 0 0 0 0 0 0 0 0 0 0 0 0 0 0 0 0 0 0 0 0 0 0 0 0 0 0 0 0 0 0 0 0 0 0 0 0 0 0
0 0 0 0 0 0 0 0 0 0 0 0 0 0 0 0 0 0 0 0 0 0 0 0 0 0 0 0 0 0 0 0 0 0 0 0 0 0 0 0 0 0 0
0 0 0 0 0 0 0 0 0 0 0 0 0 0 0 0 0 0 0 0 0 0 0 0 0 0 0 0 0 0 0 0 0 0 0 0 0 0 0 0 0 0 0
0 0 0 0 0 0 0 0 0 0 0 0 0 0 0 0 0 0 0 0 0 0 0 0 0 0 0 0 0 0 0 0 0 0 0 0 0 0 0 0 0 0 0
0 0 0 0 0 0 0 0 0 0 0 0 0 0 0 0 0 0 0 0 0 0 0 0 0 0 0 0 0 0 0 0 0 0 0 0 0 0 0 0 0 0 0
0 0 0 0 0 0 0 0 0 0 0 0 0 0 0 0 0 0 0 0 0 0 0 0 0 0 0 0 0 0 0 0 0 0 0 0 0 0 0 0 0 0 0
0 0 0 0 0 0 0 0 0 0 0 0 0 0 0 0 0 0 0 0 0 0 0 0 0 0 0 0 0 0 0 0 0 0 0 0 0 0 0 0 0 0 0
0 0 0 0 0 0 0 0 0 0 0 0 0 0 0 0 0 0 0 0 0 0 0 0 0 0 0 0 0 0 0 0 0 0 0 0 0 0 0 0 0 0 0
0 0 0 0 0 0 0 0 0 0 0 0 0 0 0 0 0 0 0 0 0 0 0 0 0 0 0 0 0 0 0 0 0 0 0 0 0 0 0 0 0 0 0
0 0 0 0 0 0 0 0 0 0 0 0 0 0 0 0 0 0 0 0 0 0 0 0 0 0 0 0 0 0 0 0 0 0 0 0 0 0 0 0 0 0 0
0 0 0 0 0 0 0 0 0 0 0 0 0 0 0 0 0 0 0 0 0 0 0 0 0 0 0 0 0 0 0 0 0 0 0 0 0 0 0 0 0 0 0
0 0 0 0 0 0 0 0 0 0 0 0 0 0 0 0 0 0 0 0 0 0 0 0 0 0 0 0 0 0 0 0 0 0 0 0 0 0 0 0 0 0 0
0 0 0 0 0 0 0 0 0 0 0 0 0 0 0 0 0 0 0 0 0 0 0 0 0 0 0 0 0 0 0 0 0 0 0 0 0 0 0 0 0 0 0
0 0 0 0 0 0 0 0 0 0 0 0 0 0 0 0 0 0 0 0 0 0 0 0 0 0 0 0 0 0 0 0 0 0 0 0 0 0 0 0 0 0 0
0 0 0 0 0 0 0 0 0 0 0 0 0 0 0 0 0 0 0 0 0 0 0 0 0 0 0 0 0 0 0 0 0 0 0 0 0 0 0 0 0 0 0
0 0 0 0 0 0 0 0 0 0 0 0 0 0 0 0 0 0 0 0 0 0 0 0 0 0 0 0 0 0 0 0 0 0 0 0 0 0 0 0 0 0 0
0 0 0 0 0 0 0 0 0 0 0 0 0 0 0 0 0 0 0 0 0 0 0 0 0 0 0 0 0 0 0 0 0 0 0 0 0 0 0 0 0 0 0
0 0 0 0 0 0 0 0 0 0 0 0 0 0 0 0 0 0 0 0 0 0 0 0 0 0 0 0 0 0 0 0 0 0 0 0 0 0 0 0 0 0 0
0 0 0 0 0 0 0 0 0 0 0 0 0 0 0 0 0 0 0 0 0 0 0 0 0 0 0 0 0 0 0 0 0 0 0 0 0 0 0 0 0 0 0
0 0 0 0 0 0 0 0 0 0 0 0 0 0 0 0 0 0 0 0 0 0 0 0 0 0 0 0 0 0 0 0 0 0 0 0 0 0 0 0 0 0 0
0 0 0 0 0 0 0 0 0 0 0 0 0 0 0 0 0 0 0 0 0 0 0 0 0 0 0 0 0 0 0 0 0 0 0 0 0 0 0 0 0 0 0
0 0 0 0 0 0 0 0 0 0 0 0 0 0 0 0 0 0 0 0 0 0 0 0 0 0 0 0 0 0 0 0 0 0 0 0 0 0 0 0 0 0 0
0 0 0 0 0 0 0 0 0 0 0 0 0 0 0 0 0 0 0 0 0 0 0 0 0 0 0 0 0 0 0 0 0 0 0 0 0 0 0 0 0 0 0
0 0 0 0 0 0 0 0 0 0 0 0 0 0 0 0 0 0 0 0 0 0 0 0 0 0 0 0 0 0 0 0 0 0 0 0 0 0 0 0 0 0 0
0 0 0 0 0 0 0 0 0 0 0 0 0 0 0 0 0 0 0 0 0 0 0 0 0 0 0 0 0 0 0 0 0 0 0 0 0 0 0 0 0 0 0
0 0 0 0 0 0 0 0 0 0 0 0 0 0 0 0 0 0 0 0 0 0 0 0 0 0 0 0 0 0 0 0 0 0 0 0 0 0 0 0 0 0 0
Wind_Speed
3 3 7 7 7 7 7 7 7 8 9 9 9 10 11 11 12 12 12 11 11 12 12 11 11 10 9 9 9 8 9 9 9 9 8 9 9 8 8 8 7 5 7
4 5 8 8 7 7 6 7 7 8 8 9 9 9 9 11 12 12 11 11 11 12 12 11 10 10 10 9 8 8 8 9 8 8 8 7 8 7 7 7 6 4 7
4 4 6 8 8 7 7 7 7 8 8 9 9 9 9 10 12 12 11 11 11 11 11 11 10 9 9 8 8 7 8 8 8 8 6 4 5 6 6 7 6 6 6
5 4 5 8 8 7 7 7 7 7 8 8 9 9 9 10 11 11 11 11 10 10 10 10 9 8 8 7 7 7 7 7 7 6 3 3 3 6 6 6 6 6 6
4 3 4 8 8 7 7 7 7 7 7 8 9 9 9 10 11 10 10 10 10 10 9 9 8 8 7 7 6 6 6 6 6 4 3 2 2 4 5 5 6 6 6
3 3 4 7 7 6 6 6 6 7 7 7 8 9 9 9 10 10 9 9 8 8 9 8 8 7 6 6 6 6 5 5 4 3 2 2 2 4 5 5 5 5 5
3 2 3 6 6 6 5 5 5 5 6 7 7 8 8 8 9 9 8 8 8 8 8 8 7 7 7 6 6 5 5 5 3 3 2 2 2 4 5 5 4 4 4
3 2 2 4 5 5 4 4 4 5 5 6 7 8 8 8 8 8 8 8 7 7 7 7 7 7 6 6 5 5 5 4 3 3 2 2 3 4 5 4 4 4 4
3 3 2 1 2 3 3 3 3 4 5 5 6 6 7 7 7 7 7 7 7 6 6 6 6 6 5 5 4 4 5 4 2 2 2 2 4 4 4 4 4 4 4
3 2 2 2 2 1 0 1 2 3 4 5 5 5 6 6 6 5 5 5 6 5 5 6 5 5 5 4 4 4 4 3 2 1 1 2 4 4 4 5 5 4 4
2 1 1 1 1 1 0 1 2 3 3 4 3 4 4 2 2 2 3 4 5 4 4 5 5 5 4 4 4 4 2 1 2 1 1 2 3 4 5 5 5 5 5
2 1 1 1 1 1 1 1 2 2 2 2 1 2 2 2 1 2 2 4 4 3 3 4 5 4 3 1 2 2 1 1 1 1 1 3 4 5 5 5 5 5 5
3 2 2 2 1 1 1 1 1 1 1 1 1 2 2 2 1 1 1 1 1 2 1 2 2 2 1 1 1 1 1 1 1 1 2 4 4 5 5 6 5 5 5
3 3 2 2 2 1 1 1 1 1 1 1 1 1 2 1 1 1 1 1 1 1 1 1 1 1 1 1 2 2 2 2 1 1 2 4 5 5 6 6 6 6 6
4 3 3 3 2 2 1 1 1 1 1 1 1 1 2 2 1 1 1 1 1 1 1 1 1 1 1 1 1 2 2 2 2 2 2 4 5 6 6 6 7 7 6
4 4 3 4 3 2 2 1 1 1 1 1 1 1 2 2 2 1 1 1 0 1 1 1 2 2 1 1 1 1 2 2 2 2 2 3 5 6 6 7 7 7 7
4 4 4 4 3 3 2 2 1 1 1 1 1 1 2 2 2 2 1 1 1 1 1 1 1 1 1 1 1 1 1 2 2 2 2 2 3 5 6 6 7 7 7
4 4 4 4 4 3 2 2 1 1 1 1 1 1 2 2 3 2 1 1 1 1 1 1 1 1 0 0 1 1 1 1 2 2 2 2 2 3 4 6 6 6 7
5 5 4 3 4 3 3 2 1 1 1 1 1 1 2 2 3 2 2 1 1 1 1 1 1 1 1 0 1 1 1 1 1 2 2 2 2 3 3 4 6 6 7
4 4 4 3 3 3 2 2 1 1 0 0 1 1 2 2 2 2 2 1 2 1 1 1 1 1 1 1 1 1 1 1 1 1 2 2 2 3 3 4 3 4 5
4 4 4 4 3 3 2 2 1 1 0 0 1 1 2 2 2 2 1 1 2 2 2 2 1 1 0 0 0 1 2 1 1 1 1 1 2 3 3 2 2 2 2
5 5 5 5 4 4 3 2 2 1 1 1 1 0 1 2 2 2 2 2 2 2 1 1 1 1 0 1 1 1 2 3 2 1 1 1 2 2 2 2 1 1 1
6 6 6 5 4 4 3 2 2 2 1 1 0 0 1 1 2 2 2 2 2 2 2 2 2 2 2 1 1 2 1 1 2 2 1 1 1 1 1 1 1 1 1
7 6 5 5 4 3 4 3 4 3 2 2 1 1 1 1 1 2 2 3 3 2 2 3 3 2 3 2 1 1 1 2 1 2 2 2 2 1 2 1 1 1 1
5 5 5 4 4 3 4 4 4 3 2 1 0 1 1 1 1 1 1 2 2 2 3 2 2 2 3 2 2 1 1 1 1 1 2 3 2 2 1 1 1 1 1
4 4 4 4 4 4 5 5 5 4 3 2 1 1 1 1 1 1 1 2 2 2 2 2 3 3 3 2 2 2 2 2 2 2 2 2 2 2 2 1 1 1 1
Wind_Direction
205 188 181 170 158 149 146 143 140 134 130 128 128 132 141 146 148 149 150 150 151 153 153 151 149 148 150 149 150 151 149 147 147 148 149 148 147 143 143 142 140 135 133
171 173 175 170 159 149 146 146 141 134 131 132 132 133 141 148 149 148 148 149 149 149 150 153 154 156 156 154 152 152 151 150 151 152 149 147 147 147 149 149 147 140 140
151 165 173 168 157 150 147 146 140 133 131 133 133 133 136 143 147 146 146 146 146 146 149 153 155 155 151 148 150 151 149 149 152 149 142 136 140 143 150 155 153 151 148
145 154 166 166 157 151 148 145 141 137 132 132 132 132 132 138 141 142 143 144 145 147 148 150 152 149 146 146 147 146 146 152 152 146 138 145 152 154 160 160 159 159 157
136 147 168 164 157 153 151 148 144 140 136 135 136 136 135 134 136 139 141 142 144 146 146 147 148 146 147 148 146 142 142 148 151 137 129 140 147 164 167 168 170 169 168
133 146 163 160 156 156 156 152 150 146 142 139 137 139 139 139 140 141 142 143 147 149 149 148 147 146 145 142 136 130 129 138 144 128 134 150 164 175 174 174 177 176 176
114 120 147 157 156 156 155 155 154 145 144 143 141 142 142 143 144 144 144 146 147 150 148 144 143 142 143 139 136 131 126 130 123 125 138 160 182 182 179 176 178 178 177
114 111 125 152 156 161 161 158 154 146 147 148 147 145 146 147 148 148 146 149 149 148 146 143 143 141 141 141 141 137 139 138 134 136 146 173 185 190 188 184 181 177 177
93 93 88 114 134 143 157 161 164 157 150 150 151 151 150 149 147 147 148 152 154 156 156 152 150 149 147 146 146 147 150 143 130 148 172 182 191 200 200 193 187 188 188
81 79 73 57 63 73 136 171 155 154 154 153 148 148 151 150 149 153 153 155 158 163 167 167 166 162 156 156 159 155 154 133 137 167 191 200 197 204 206 197 197 200 197
102 73 79 76 63 65 83 120 90 122 145 144 146 149 143 127 136 153 161 163 163 164 169 174 175 170 165 168 167 158 144 130 149 170 200 201 203 211 212 206 207 210 211
176 172 137 125 108 77 115 72 57 83 94 101 102 122 118 113 125 142 162 169 163 161 162 158 161 161 158 143 158 151 129 152 174 204 206 205 215 222 224 220 218 216 216
180 180 174 163 138 114 88 91 76 81 88 88 102 104 106 104 103 107 121 169 151 149 126 125 135 129 132 147 150 157 170 192 212 226 229 227 228 231 234 229 226 222 223
169 184 176 165 148 146 130 107 103 96 95 104 119 117 113 111 103 105 112 102 99 113 127 121 126 131 148 171 177 183 193 208 220 231 238 237 236 242 245 239 234 232 230
181 188 178 159 157 150 141 147 132 153 155 143 110 121 129 132 127 110 104 102 111 122 143 141 143 151 159 176 194 194 206 216 229 234 247 248 245 247 251 247 243 240 238
185 179 169 164 165 151 154 159 154 158 147 109 119 143 136 136 131 123 117 123 143 156 157 153 154 157 169 183 211 219 225 226 237 244 249 260 257 255 257 254 251 249 248
183 173 169 169 158 155 165 166 145 137 128 148 175 155 151 152 148 145 141 166 192 162 149 130 121 125 151 181 233 248 245 243 242 245 247 252 263 262 262 261 257 256 253
171 170 178 170 156 159 160 152 139 133 141 176 172 155 169 167 158 151 161 195 176 142 140 142 140 128 148 175 246 268 265 258 246 243 246 253 261 272 273 272 267 262 258
175 173 173 169 160 165 159 140 133 123 142 165 154 164 182 178 166 157 178 194 160 139 148 172 138 154 180 220 247 264 283 270 259 256 249 255 261 268 275 282 276 270 261
173 169 170 166 161 153 137 110 90 74 60 108 159 183 185 187 176 161 171 173 154 149 162 167 163 155 183 224 264 308 310 287 259 253 254 264 267 267 269 278 280 273 264
171 170 173 171 171 154 143 142 142 178 168 153 205 200 192 186 172 161 175 168 164 176 190 179 167 165 185 144 73 339 325 301 260 253 254 263 277 279 280 281 288 281 271
185 185 183 186 179 172 167 158 150 151 176 180 199 188 196 183 178 177 178 179 180 181 179 174 163 160 176 129 134 88 345 340 335 319 283 264 287 297 294 286 283 269 268
194 193 195 195 186 180 164 123 101 75 45 49 26 252 242 198 192 188 182 179 181 181 194 197 182 175 187 183 143 142 150 264 308 320 312 321 323 311 308 311 299 287 273
206 195 192 189 186 176 157 154 157 166 190 218 212 219 249 232 219 198 183 181 189 191 196 205 188 186 177 196 199 190 180 173 198 310 321 330 331 323 316 319 324 315 298
194 187 188 183 179 167 167 174 176 192 209 219 194 219 261 264 239 220 186 180 195 197 200 205 192 191 190 195 195 188 186 186 196 213 292 321 333 320 308 294 310 332 317
176 175 174 175 187 180 179 182 189 199 206 202 216 225 252 269 256 245 217 203 206 209 210 205 201 202 205 200 199 195 183 184 197 191 235 282 297 303 311 316 319 311 309